Regional Weather Roundup
Issued by NWS

Home | Current Version | Previous Version | Graphics & Text | Print | Product List | Glossary On
Versions: 1 2 3 4 5 6 7 8 9 10 11 12 13 14 15 16 17 18 19 20 21 22 23 24 25 26 27 28 29 30 31 32 33 34 35 36 37 38 39 40 41 42 43 44 45 46 47 48 49 50
415
ASUS45 KCYS 091110
RWRWY

WYOMING REGIONAL WEATHER ROUNDUP
NATIONAL WEATHER SERVICE CHEYENNE WY
400 AM MST TUE FEB 09 2016

NOTE:  "FAIR" INDICATES FEW OR NO CLOUDS BELOW 12,000 FEET
WITH NO SIGNIFICANT WEATHER AND/OR OBSTRUCTIONS TO VISIBILITY.

WYZ001-091200-
YELLOWSTONE NATIONAL PARK

CITY           SKY/WX    TMP DP  RH WIND       PRES   REMARKS
LK YELLOWSTONE   N/A     14  12  92 CALM      30.57R
W YELLOWSTONE  NOT AVBL

$$
WYZ002>013-054>058-071-098>099-091200-
NORTHERN WYOMING

CITY           SKY/WX    TMP DP  RH WIND       PRES   REMARKS
JACKSON        FAIR       7   5  92 N8        30.57F WCI  -6
CODY           FAIR      28  19  69 CALM      30.34S
GREYBULL       FAIR      19  15  84 NW3       30.38S
WORLAND        FAIR      17  15  92 CALM      30.37S
SHERIDAN       FAIR      32  26  78 W6        30.29S WCI  26
BUFFALO        FAIR      40  27  59 N7        30.29S
GILLETTE       FAIR      33  27  78 W13       30.26S WCI  24
HULETT         FAIR      30  25  80 SW8       30.25S WCI  23
NEWCASTLE      FAIR      30  23  74 NW10      30.24S WCI  21

$$
WYZ014>020-022>026-101>103-091200-
CENTRAL WYOMING

CITY           SKY/WX    TMP DP  RH WIND       PRES   REMARKS
BIG PINEY      FAIR      25  20  81 NE16      30.46F WCI  12
PINEDALE       FAIR      30  23  74 NW25      30.43F WCI  16
DUBOIS         FAIR      36  19  51 W23G29    30.41S WCI  24
LANDER         FAIR      25  16  68 CALM      30.37F
RIVERTON       FAIR      19  13  77 CALM      30.38F
CASPER         FAIR      29  19  66 SW21      30.33F WCI  16
DOUGLAS        FAIR      29  21  72 NW9         N/A  WCI  20

$$
WYZ021-027>030-104>119-091200-
SOUTHERN WYOMING

CITY           SKY/WX    TMP DP  RH WIND       PRES   REMARKS
EVANSTON       FAIR      22  16  78 S6        30.54F WCI  14
FORT BRIDGER   SUNNY     32  23  69 W20       30.54S WCI  20
ROCK SPRINGS   FAIR      27  21  78 SW20      30.46S WCI  13
DIXON          FAIR      17  12  80 NE3       30.52S
RAWLINS        FAIR      29  19  66 W21       30.44R WCI  16
SARATOGA       FAIR      14  10  85 CALM      30.45R
LARAMIE        FAIR      17  12  80 E10       30.34S WCI   5
CHEYENNE       FAIR      36  18  48 NW18G25   30.27F WCI  26
TORRINGTON     FAIR      33  23  66 NW14      30.25S WCI  23
PINE BLUFFS    FAIR      36  23  60 NW20      30.26F WCI  25

$$




USA.gov is the U.S. government's official web portal to all federal, state and local government web resources and services.